User: anonymous   Login
Location: Unspecified
(0.0000°N, 0.0000°E)
Time: 23:16:37
(UTC+00:00)
Language:

USA 274 - Orbit

View from above orbital plane
View from above orbital plane
View from above satellite
View from above satellite

Ground track
Ground track

The orbit data is extracted from the following two-line orbital elements,

1 42058U 17011A   18260.84192863 0.00000000  00000-0  00000-0 0    00
2 42058  63.4390 152.9151 0080000 175.6551 184.3449 13.40763680    09
Epoch (UTC): 17 September 2018 20:12:22
Eccentricity: 0.0080000
inclination: 63.4390°
perigee height: 1046 km
apogee height: 1166 km
right ascension of ascending node: 152.9151°
argument of perigee: 175.6551°
revolutions per day: 13.40763680
mean anomaly at epoch: 184.3449°
orbit number at epoch: 0

The dashed part of the orbit path shows where the satellite is in the earth's shadow,  

DLR